Lubbock, TX

11:47 AM CST on November 15, 2019 (GMT -0600)
Lubbock International

Weather History for KLBB - August, 2019

Change the Weather History Date:

Wednesday, August 28, 2019

  Actual Average Record
Temperature  
Mean Temperature 74 °F 77 °F  
Max Temperature 82 °F 90 °F 103 °F (2011)
Min Temperature 66 °F 65 °F 54 °F (1916)
Degree Days  
Heating Degree Days 0 0  
Month to date heating degree days 0 0  
Since 1 June heating degree days 0 2  
Since 1 July heating degree days 0 0  
Cooling Degree Days 10 12  
Month to date cooling degree days 561 397  
Year to date cooling degree days 1668 1490  
Since 1 June cooling degree days 1458 1244  
Growing Degree Days 24 (Base 50)    
Moisture  
Dew Point 65 °F    
Average Humidity 80    
Maximum Humidity 94    
Minimum Humidity 58    
Precipitation  
Precipitation 0.20 in 0.06 in 3.30 in (1946)
Month to date precipitation 2.14 1.70  
Year to date precipitation 15.59 12.86  
Snow  
Snow 0.00 in 0.00 in 0.00 in (2002)
Month to date snowfall 0.0 0.0  
Since 1 June snowfall 0.0 0.0  
Since 1 July snowfall 0.0 0.0  
Snow Depth 0.00 in    
Sea Level Pressure  
Sea Level Pressure 30.07 in    
Wind  
Wind Speed 10 mph ()    
Max Wind Speed 21 mph    
Max Gust Speed 25 mph    
Visibility 9.3 miles    
Events Rain , Thunderstorm    
T = Trace of Precipitation, MM = Missing Value Source: Averaged Metar Reports

Daily Weather History Graph

Daily Weather History Graph

Search for Another Location

Airport or City:

Astronomy

Aug. 28, 2019 Rise Set
Actual Time 7:18 AM CDT 8:18 PM CDT
Civil Twilight 6:52 AM CDT 8:43 PM CDT
Nautical Twilight 6:22 AM CDT 9:13 PM CDT
Astronomical Twilight 5:51 AM CDT 9:45 PM CDT
Moon 5:01 AM CDT (8/28) 7:24 PM CDT (8/28)
Length of Visible Light 13h 50m
Length of Day
12h 59m
Waning Crescent, 4% of the Moon is Illuminated
Aug 28
Waning Crescent
Aug 30
New
Sep 5
First Quarter
Sep 13
Full
Sep 21
Last Quarter

Hourly Weather History & Observations

Time (CDT) Temp. Heat Index Dew Point Humidity Pressure Visibility Wind Dir Wind Speed Gust Speed Precip Events Conditions
12:53 AM 73.0 °F - 63.0 °F 71% 30.00 in 10.0 mi East 10.4 mph - N/A   Mostly Cloudy
1:53 AM 73.0 °F - 64.0 °F 73% 30.00 in 10.0 mi East 12.7 mph - N/A   Overcast
2:53 AM 72.0 °F - 63.0 °F 73% 30.02 in 10.0 mi ESE 15.0 mph - N/A   Overcast
3:53 AM 71.1 °F - 64.0 °F 78% 30.01 in 10.0 mi ESE 17.3 mph - N/A   Overcast
4:53 AM 70.0 °F - 64.0 °F 81% 30.01 in 10.0 mi ESE 13.8 mph - N/A   Overcast
5:11 AM 70.0 °F - 63.0 °F 78% 30.15 in 10.0 mi ESE 13.8 mph - N/A Thunderstorm Thunderstorm
5:53 AM 70.0 °F - 63.0 °F 78% 30.02 in 10.0 mi SE 15.0 mph - N/A Thunderstorm Thunderstorm
6:53 AM 69.1 °F - 64.0 °F 84% 30.06 in 10.0 mi SSE 6.9 mph - 0.01 in Rain , Thunderstorm Thunderstorms and Rain
7:08 AM 66.9 °F - 64.9 °F 93% 30.21 in 6.0 mi SE 13.8 mph - 0.03 in Rain , Thunderstorm Thunderstorms and Rain
7:18 AM 66.9 °F - 64.0 °F 90% 30.20 in 4.0 mi SE 12.7 mph - 0.06 in Rain , Thunderstorm Heavy Thunderstorms and Rain
7:33 AM 66.0 °F - 64.0 °F 93% 30.20 in 5.0 mi SSE 12.7 mph - 0.11 in Rain , Thunderstorm Light Thunderstorms and Rain
7:49 AM 66.2 °F - 64.4 °F 94% 30.20 in 10.0 mi SE 9.2 mph - 0.12 in Rain Light Rain
7:53 AM 66.0 °F - 64.0 °F 93% 30.06 in 10.0 mi SE 9.2 mph - 0.12 in Rain Light Rain
7:59 AM 66.0 °F - 64.0 °F 93% 30.19 in 9.0 mi SE 11.5 mph - 0.00 in Rain Light Rain
8:27 AM 66.9 °F - 64.9 °F 93% 30.21 in 9.0 mi ESE 6.9 mph - 0.00 in Rain , Thunderstorm Light Thunderstorms and Rain
8:45 AM 66.9 °F - 64.9 °F 93% 30.22 in 10.0 mi East 4.6 mph - 0.00 in   Mostly Cloudy
8:53 AM 66.9 °F - 64.9 °F 93% 30.08 in 10.0 mi East 3.5 mph - 0.00 in   Overcast
9:53 AM 66.9 °F - 64.0 °F 90% 30.08 in 10.0 mi East 6.9 mph - 0.00 in Rain Light Rain
10:00 AM 66.9 °F - 64.0 °F 90% 30.21 in 10.0 mi East 9.2 mph - 0.00 in Rain , Thunderstorm Light Thunderstorms and Rain
10:42 AM 66.9 °F - 64.9 °F 93% 30.22 in 8.0 mi East 8.1 mph - 0.04 in Rain Light Rain
10:53 AM 68.0 °F - 66.0 °F 93% 30.08 in 5.0 mi ESE 10.4 mph - 0.06 in Rain Light Rain
11:53 AM 73.9 °F - 64.9 °F 73% 30.04 in 10.0 mi SSE 12.7 mph - 0.01 in   Mostly Cloudy
12:53 PM 75.9 °F - 66.0 °F 71% 30.05 in 10.0 mi South 10.4 mph - N/A   Mostly Cloudy
1:53 PM 75.9 °F - 64.0 °F 67% 30.05 in 10.0 mi South 6.9 mph - N/A   Mostly Cloudy
2:53 PM 80.1 °F 81.9 °F 64.9 °F 60% 30.03 in 10.0 mi South 15.0 mph - N/A   Mostly Cloudy
3:53 PM 80.1 °F 82.1 °F 66.0 °F 62% 30.00 in 10.0 mi SSE 15.0 mph - N/A   Mostly Cloudy
4:53 PM 81.0 °F 83.3 °F 66.9 °F 62% 29.98 in 10.0 mi South 13.8 mph - N/A   Mostly Cloudy
5:53 PM 82.9 °F 85.4 °F 66.9 °F 58% 29.95 in 10.0 mi South 12.7 mph - N/A   Mostly Cloudy
6:53 PM 82.0 °F 84.9 °F 68.0 °F 62% 29.92 in 10.0 mi SSE 16.1 mph - N/A   Scattered Clouds
7:53 PM 80.1 °F 82.7 °F 68.0 °F 67% 29.94 in 10.0 mi SSE 11.5 mph - N/A   Partly Cloudy
8:53 PM 77.0 °F - 68.0 °F 74% 29.95 in 10.0 mi SSE 9.2 mph - N/A   Partly Cloudy
9:53 PM 75.9 °F - 68.0 °F 76% 29.98 in 10.0 mi SSE 4.6 mph - N/A   Partly Cloudy
10:53 PM 75.9 °F - 68.0 °F 76% 29.97 in 10.0 mi SSE 10.4 mph - N/A   Scattered Clouds
11:53 PM 73.0 °F - 69.1 °F 87% 29.97 in 10.0 mi ESE 5.8 mph - N/A   Scattered Clouds